Wetterdaten: Montag, 20.04.2015
Datum Zeit Auen-Temp. Temp gefhlt Luftfeuchte Luftdruck Regen Wind Richtung Richtung Taupunkt Windben
20.04.2015 00:00 1,4 C 0,9 C 69 % 1018,8 hPa 0,0 mm 0,0 km/h (0 Bft) O-SO 112 -3,7 C 0,0 km/h (0 Bft)
20.04.2015 00:05 1,2 C 0,7 C 69 % 1018,8 hPa 0,0 mm 0,0 km/h (0 Bft) O-SO 112 -3,8 C 0,0 km/h (0 Bft)
20.04.2015 00:10 1,2 C 0,6 C 70 % 1018,8 hPa 0,0 mm 0,0 km/h (0 Bft) O-SO 112 -3,7 C 0,0 km/h (0 Bft)
20.04.2015 00:15 1,1 C 0,5 C 71 % 1018,9 hPa 0,0 mm 0,0 km/h (0 Bft) O-SO 112 -3,6 C 0,0 km/h (0 Bft)
20.04.2015 00:20 1,0 C 0,4 C 72 % 1018,9 hPa 0,0 mm 0,0 km/h (0 Bft) O-SO 112 -3,5 C 0,0 km/h (0 Bft)
20.04.2015 00:25 1,5 C 0,8 C 74 % 1018,9 hPa 0,0 mm 0,0 km/h (0 Bft) O-NO 67 -2,6 C 0,0 km/h (0 Bft)
20.04.2015 00:30 1,1 C 0,6 C 73 % 1018,9 hPa 0,0 mm 0,5 km/h (0 Bft) O-NO 67 -3,2 C 0,0 km/h (0 Bft)
20.04.2015 00:35 1,7 C 1,0 C 75 % 1018,8 hPa 0,0 mm 0,8 km/h (0 Bft) S 180 -2,2 C 3,6 km/h (1 Bft)
20.04.2015 00:40 1,6 C 1,0 C 75 % 1018,8 hPa 0,0 mm 0,8 km/h (0 Bft) S 180 -2,3 C 3,4 km/h (1 Bft)
20.04.2015 00:45 1,5 C 0,9 C 75 % 1018,8 hPa 0,0 mm 0,5 km/h (0 Bft) S-SO 157 -2,4 C 0,0 km/h (0 Bft)
20.04.2015 00:50 0,7 C 0,3 C 74 % 1018,8 hPa 0,0 mm 0,0 km/h (0 Bft) O-NO 67 -3,4 C 0,0 km/h (0 Bft)
20.04.2015 00:55 1,0 C 0,4 C 77 % 1019,0 hPa 0,0 mm 0,0 km/h (0 Bft) O-SO 112 -2,6 C 0,0 km/h (0 Bft)
20.04.2015 01:00 1,0 C 0,4 C 77 % 1019,0 hPa 0,0 mm 0,0 km/h (0 Bft) O-NO 67 -2,6 C 0,0 km/h (0 Bft)
20.04.2015 01:05 0,6 C 0,0 C 76 % 1019,0 hPa 0,0 mm 0,0 km/h (0 Bft) NO 45 -3,1 C 0,0 km/h (0 Bft)
20.04.2015 01:10 0,6 C 0,0 C 76 % 1019,0 hPa 0,0 mm 0,3 km/h (0 Bft) O-NO 67 -3,1 C 0,0 km/h (0 Bft)
20.04.2015 01:15 0,3 C -0,2 C 76 % 1019,4 hPa 0,0 mm 0,3 km/h (0 Bft) S 180 -3,4 C 0,0 km/h (0 Bft)
20.04.2015 01:20 0,5 C -0,1 C 77 % 1019,4 hPa 0,0 mm 0,0 km/h (0 Bft) O-NO 67 -3,1 C 0,0 km/h (0 Bft)
20.04.2015 01:25 0,4 C -0,2 C 77 % 1019,4 hPa 0,0 mm 0,0 km/h (0 Bft) O-SO 112 -3,1 C 0,0 km/h (0 Bft)
20.04.2015 01:30 0,8 C 0,0 C 78 % 1019,4 hPa 0,0 mm 0,0 km/h (0 Bft) O-NO 67 -2,6 C 0,0 km/h (0 Bft)
20.04.2015 01:35 1,0 C 0,2 C 79 % 1019,4 hPa 0,0 mm 0,0 km/h (0 Bft) SO 135 -2,2 C 0,0 km/h (0 Bft)
20.04.2015 01:40 1,1 C 0,3 C 75 % 1019,4 hPa 0,0 mm 0,8 km/h (0 Bft) S 180 -2,8 C 6,0 km/h (2 Bft)
20.04.2015 01:45 1,0 C 0,4 C 76 % 1019,4 hPa 0,0 mm 2,1 km/h (1 Bft) S-SO 157 -2,7 C 6,2 km/h (2 Bft)
20.04.2015 01:50 1,1 C 0,5 C 79 % 1019,4 hPa 0,0 mm 1,8 km/h (1 Bft) S 180 -2,1 C 0,0 km/h (0 Bft)
20.04.2015 01:55 1,1 C 0,5 C 79 % 1019,4 hPa 0,0 mm 0,3 km/h (0 Bft) S-SO 157 -2,1 C 0,0 km/h (0 Bft)
20.04.2015 02:00 1,1 C 0,5 C 79 % 1019,4 hPa 0,0 mm 0,3 km/h (0 Bft) S 180 -2,1 C 0,0 km/h (0 Bft)
20.04.2015 02:05 0,9 C 0,4 C 79 % 1019,4 hPa 0,0 mm 0,5 km/h (0 Bft) S-SO 157 -2,3 C 0,0 km/h (0 Bft)
20.04.2015 02:10 1,0 C 0,4 C 78 % 1019,4 hPa 0,0 mm 0,3 km/h (0 Bft) SO 135 -2,4 C 0,0 km/h (0 Bft)
20.04.2015 02:15 0,7 C 0,2 C 78 % 1019,2 hPa 0,0 mm 0,3 km/h (0 Bft) O-SO 112 -2,7 C 0,0 km/h (0 Bft)
20.04.2015 02:20 0,8 C 0,2 C 79 % 1019,2 hPa 0,0 mm 0,0 km/h (0 Bft) S 180 -2,4 C 0,0 km/h (0 Bft)
20.04.2015 02:25 0,5 C 0,0 C 79 % 1019,2 hPa 0,0 mm 0,3 km/h (0 Bft) O-SO 112 -2,7 C 0,0 km/h (0 Bft)
20.04.2015 02:30 0,2 C -0,3 C 78 % 1019,2 hPa 0,0 mm 0,3 km/h (0 Bft) O-NO 67 -3,2 C 0,0 km/h (0 Bft)
20.04.2015 02:35 -0,2 C -0,7 C 78 % 1019,1 hPa 0,0 mm 0,0 km/h (0 Bft) O-NO 67 -3,6 C 0,0 km/h (0 Bft)
20.04.2015 02:40 -0,3 C -0,9 C 78 % 1019,1 hPa 0,0 mm 0,0 km/h (0 Bft) O-NO 67 -3,7 C 0,0 km/h (0 Bft)
20.04.2015 02:45 -0,4 C -1,0 C 78 % 1019,1 hPa 0,0 mm 0,0 km/h (0 Bft) O-SO 112 -3,8 C 0,0 km/h (0 Bft)
20.04.2015 02:50 -0,4 C -1,0 C 78 % 1019,1 hPa 0,0 mm 0,0 km/h (0 Bft) O-SO 112 -3,8 C 0,0 km/h (0 Bft)
20.04.2015 02:55 -0,3 C -1,0 C 79 % 1019,0 hPa 0,0 mm 0,0 km/h (0 Bft) O-NO 67 -3,5 C 0,0 km/h (0 Bft)
20.04.2015 03:00 -0,6 C -1,2 C 78 % 1019,0 hPa 0,0 mm 0,0 km/h (0 Bft) O-NO 67 -3,9 C 0,0 km/h (0 Bft)
20.04.2015 03:05 -0,4 C -1,1 C 79 % 1019,0 hPa 0,0 mm 0,0 km/h (0 Bft) O-NO 67 -3,6 C 0,0 km/h (0 Bft)
20.04.2015 03:10 -0,7 C -1,2 C 79 % 1019,0 hPa 0,0 mm 0,0 km/h (0 Bft) O-NO 67 -3,9 C 0,0 km/h (0 Bft)
20.04.2015 03:15 -0,9 C -1,5 C 79 % 1018,9 hPa 0,0 mm 0,0 km/h (0 Bft) NW 315 -4,1 C 0,0 km/h (0 Bft)
20.04.2015 03:20 -1,1 C -1,6 C 79 % 1018,9 hPa 0,0 mm 0,0 km/h (0 Bft) NW 315 -4,3 C 0,0 km/h (0 Bft)
20.04.2015 03:25 -0,9 C -1,5 C 79 % 1018,9 hPa 0,0 mm 0,0 km/h (0 Bft) N-NO 22 -4,1 C 0,0 km/h (0 Bft)
20.04.2015 03:30 -0,8 C -1,5 C 79 % 1018,9 hPa 0,0 mm 0,0 km/h (0 Bft) O-SO 112 -4,0 C 0,0 km/h (0 Bft)
20.04.2015 03:35 -1,0 C -1,6 C 79 % 1019,1 hPa 0,0 mm 0,0 km/h (0 Bft) S 180 -4,2 C 0,0 km/h (0 Bft)
20.04.2015 03:40 -0,7 C -1,3 C 80 % 1019,1 hPa 0,0 mm 0,0 km/h (0 Bft) N-NW 337 -3,7 C 0,0 km/h (0 Bft)
20.04.2015 03:45 -1,1 C -1,6 C 80 % 1019,1 hPa 0,0 mm 0,0 km/h (0 Bft) W-NW 292 -4,1 C 0,0 km/h (0 Bft)
20.04.2015 03:50 -0,9 C -1,5 C 80 % 1019,1 hPa 0,0 mm 0,0 km/h (0 Bft) O-NO 67 -3,9 C 0,0 km/h (0 Bft)
20.04.2015 03:55 -1,3 C -1,8 C 80 % 1019,2 hPa 0,0 mm 0,0 km/h (0 Bft) SO 135 -4,3 C 0,0 km/h (0 Bft)
20.04.2015 04:00 -1,3 C -1,8 C 80 % 1019,2 hPa 0,0 mm 0,0 km/h (0 Bft) N-NO 22 -4,3 C 0,0 km/h (0 Bft)
20.04.2015 04:05 -1,2 C -1,7 C 80 % 1019,2 hPa 0,0 mm 0,0 km/h (0 Bft) N-NO 22 -4,2 C 0,0 km/h (0 Bft)
20.04.2015 04:10 -1,0 C -1,6 C 81 % 1019,2 hPa 0,0 mm 0,0 km/h (0 Bft) S-SW 202 -3,8 C 0,0 km/h (0 Bft)
20.04.2015 04:15 -1,2 C -1,7 C 81 % 1019,4 hPa 0,0 mm 0,0 km/h (0 Bft) N-NO 22 -4,0 C 0,0 km/h (0 Bft)
20.04.2015 04:20 -0,9 C -1,5 C 82 % 1019,4 hPa 0,0 mm 0,0 km/h (0 Bft) O-SO 112 -3,6 C 0,0 km/h (0 Bft)
20.04.2015 04:25 -1,2 C -1,7 C 82 % 1019,4 hPa 0,0 mm 0,0 km/h (0 Bft) O-NO 67 -3,9 C 0,0 km/h (0 Bft)
20.04.2015 04:30 -1,4 C -1,9 C 82 % 1019,4 hPa 0,0 mm 0,0 km/h (0 Bft) O-SO 112 -4,1 C 0,0 km/h (0 Bft)
20.04.2015 04:35 -1,3 C -1,9 C 82 % 1019,6 hPa 0,0 mm 0,0 km/h (0 Bft) O-SO 112 -4,0 C 0,0 km/h (0 Bft)
20.04.2015 04:40 -0,9 C -1,6 C 84 % 1019,6 hPa 0,0 mm 0,0 km/h (0 Bft) O 90 -3,3 C 0,0 km/h (0 Bft)
20.04.2015 04:45 -0,9 C -1,3 C 79 % 1019,6 hPa 0,0 mm 0,3 km/h (0 Bft) SO 135 -4,1 C 0,0 km/h (0 Bft)
20.04.2015 04:50 -0,9 C -1,3 C 79 % 1019,6 hPa 0,0 mm 0,5 km/h (0 Bft) N-NO 22 -4,1 C 0,0 km/h (0 Bft)
20.04.2015 04:55 -1,0 C -1,5 C 85 % 1019,4 hPa 0,0 mm 0,3 km/h (0 Bft) NO 45 -3,2 C 0,0 km/h (0 Bft)
20.04.2015 05:00 -1,4 C -1,8 C 84 % 1019,4 hPa 0,0 mm 0,0 km/h (0 Bft) NO 45 -3,7 C 0,0 km/h (0 Bft)
20.04.2015 05:05 -1,8 C -2,2 C 83 % 1019,4 hPa 0,0 mm 0,0 km/h (0 Bft) NO 45 -4,3 C 0,0 km/h (0 Bft)
20.04.2015 05:10 -1,2 C -1,8 C 84 % 1019,4 hPa 0,0 mm 0,0 km/h (0 Bft) O-NO 67 -3,5 C 0,0 km/h (0 Bft)
20.04.2015 05:15 -1,8 C -2,2 C 83 % 1019,4 hPa 0,0 mm 0,0 km/h (0 Bft) N-NW 337 -4,3 C 0,0 km/h (0 Bft)
20.04.2015 05:20 -1,8 C -2,2 C 83 % 1019,4 hPa 0,0 mm 0,0 km/h (0 Bft) O-NO 67 -4,3 C 0,0 km/h (0 Bft)
20.04.2015 05:25 -1,9 C -2,3 C 83 % 1019,4 hPa 0,0 mm 0,0 km/h (0 Bft) O-NO 67 -4,4 C 0,0 km/h (0 Bft)
20.04.2015 05:30 -2,0 C -2,4 C 83 % 1019,4 hPa 0,0 mm 0,0 km/h (0 Bft) O-NO 67 -4,5 C 0,0 km/h (0 Bft)
20.04.2015 05:35 -1,8 C -2,3 C 83 % 1019,4 hPa 0,0 mm 0,0 km/h (0 Bft) O-NO 67 -4,3 C 0,0 km/h (0 Bft)
20.04.2015 05:40 -2,0 C -2,5 C 83 % 1019,4 hPa 0,0 mm 0,0 km/h (0 Bft) O-NO 67 -4,5 C 0,0 km/h (0 Bft)
20.04.2015 05:45 -2,2 C -2,7 C 83 % 1019,4 hPa 0,0 mm 0,0 km/h (0 Bft) O-NO 67 -4,7 C 0,0 km/h (0 Bft)
20.04.2015 05:50 -2,3 C -2,8 C 83 % 1019,4 hPa 0,0 mm 0,0 km/h (0 Bft) NO 45 -4,8 C 0,0 km/h (0 Bft)
20.04.2015 05:55 -2,3 C -2,8 C 83 % 1019,2 hPa 0,0 mm 0,0 km/h (0 Bft) O-NO 67 -4,8 C 0,0 km/h (0 Bft)
20.04.2015 06:00 -2,2 C -2,7 C 83 % 1019,2 hPa 0,0 mm 0,3 km/h (0 Bft) O-SO 112 -4,7 C 0,0 km/h (0 Bft)
20.04.2015 06:05 -1,8 C -2,3 C 79 % 1019,2 hPa 0,0 mm 0,3 km/h (0 Bft) S 180 -4,9 C 0,0 km/h (0 Bft)
20.04.2015 06:10 -1,8 C -2,4 C 85 % 1019,2 hPa 0,0 mm 0,0 km/h (0 Bft) S 180 -4,0 C 0,0 km/h (0 Bft)
20.04.2015 06:15 -1,6 C -2,2 C 85 % 1019,4 hPa 0,0 mm 0,3 km/h (0 Bft) NO 45 -3,8 C 4,1 km/h (1 Bft)
20.04.2015 06:20 -2,0 C -2,4 C 85 % 1019,4 hPa 0,0 mm 0,3 km/h (0 Bft) SO 135 -4,2 C 0,0 km/h (0 Bft)
20.04.2015 06:25 -2,2 C -2,6 C 85 % 1019,4 hPa 0,0 mm 0,3 km/h (0 Bft) NW 315 -4,4 C 0,0 km/h (0 Bft)
20.04.2015 06:30 -2,2 C -2,6 C 84 % 1019,4 hPa 0,0 mm 0,0 km/h (0 Bft) NW 315 -4,5 C 0,0 km/h (0 Bft)
20.04.2015 06:35 -2,3 C -2,7 C 84 % 1019,6 hPa 0,0 mm 0,0 km/h (0 Bft) SW 225 -4,6 C 2,6 km/h (1 Bft)
20.04.2015 06:40 -1,4 C -1,9 C 81 % 1019,6 hPa 0,0 mm 1,6 km/h (1 Bft) S 180 -4,2 C 4,4 km/h (1 Bft)
20.04.2015 06:45 -1,3 C -1,6 C 87 % 1019,6 hPa 0,0 mm 2,8 km/h (1 Bft) NW 315 -3,2 C 8,3 km/h (2 Bft)
20.04.2015 06:50 -1,6 C -1,8 C 86 % 1019,6 hPa 0,0 mm 1,6 km/h (1 Bft) N-NW 337 -3,6 C 0,0 km/h (0 Bft)
20.04.2015 06:55 -1,6 C -1,9 C 86 % 1019,8 hPa 0,0 mm 0,5 km/h (0 Bft) O-NO 67 -3,6 C 3,1 km/h (1 Bft)
20.04.2015 07:00 -1,8 C -2,0 C 86 % 1019,8 hPa 0,0 mm 0,5 km/h (0 Bft) NO 45 -3,8 C 0,0 km/h (0 Bft)
20.04.2015 07:05 -1,5 C -1,8 C 81 % 1019,8 hPa 0,0 mm 0,0 km/h (0 Bft) NO 45 -4,3 C 0,0 km/h (0 Bft)
20.04.2015 07:10 -1,5 C -1,8 C 86 % 1019,8 hPa 0,0 mm 0,0 km/h (0 Bft) O 90 -3,5 C 0,0 km/h (0 Bft)
20.04.2015 07:15 -1,4 C -1,7 C 86 % 1019,8 hPa 0,0 mm 0,0 km/h (0 Bft) S 180 -3,4 C 0,0 km/h (0 Bft)
20.04.2015 07:20 -1,2 C -1,4 C 86 % 1019,8 hPa 0,0 mm 0,0 km/h (0 Bft) NO 45 -3,2 C 0,0 km/h (0 Bft)
20.04.2015 07:25 -0,9 C 0,8 C 81 % 1019,8 hPa 0,0 mm 0,0 km/h (0 Bft) NO 45 -3,7 C 0,0 km/h (0 Bft)
20.04.2015 07:30 -0,6 C 2,0 C 86 % 1019,8 hPa 0,0 mm 0,0 km/h (0 Bft) O-NO 67 -2,6 C 0,0 km/h (0 Bft)
20.04.2015 07:35 -0,5 C 4,4 C 81 % 1020,3 hPa 0,0 mm 0,0 km/h (0 Bft) O-NO 67 -3,3 C 0,0 km/h (0 Bft)
20.04.2015 07:40 -0,3 C 5,1 C 81 % 1020,3 hPa 0,0 mm 0,0 km/h (0 Bft) O-NO 67 -3,2 C 0,0 km/h (0 Bft)
20.04.2015 07:45 0,2 C 6,3 C 81 % 1020,3 hPa 0,0 mm 0,0 km/h (0 Bft) NO 45 -2,7 C 0,0 km/h (0 Bft)
20.04.2015 07:50 0,8 C 8,1 C 82 % 1020,3 hPa 0,0 mm 0,0 km/h (0 Bft) O-NO 67 -1,9 C 0,0 km/h (0 Bft)
20.04.2015 07:55 1,8 C 10,5 C 81 % 1020,4 hPa 0,0 mm 0,0 km/h (0 Bft) O-NO 67 -1,1 C 0,0 km/h (0 Bft)
20.04.2015 08:00 2,8 C 12,0 C 81 % 1020,4 hPa 0,0 mm 0,0 km/h (0 Bft) NO 45 -0,1 C 0,0 km/h (0 Bft)
20.04.2015 08:05 4,0 C 12,9 C 79 % 1020,4 hPa 0,0 mm 0,0 km/h (0 Bft) NO 45 0,7 C 0,0 km/h (0 Bft)
20.04.2015 08:10 4,0 C 13,4 C 83 % 1020,4 hPa 0,0 mm 0,0 km/h (0 Bft) O-NO 67 1,4 C 0,0 km/h (0 Bft)
20.04.2015 08:15 4,6 C 14,0 C 77 % 1020,8 hPa 0,0 mm 0,0 km/h (0 Bft) NO 45 0,9 C 0,0 km/h (0 Bft)
20.04.2015 08:20 5,2 C 14,7 C 76 % 1020,8 hPa 0,0 mm 0,0 km/h (0 Bft) O-NO 67 1,3 C 0,0 km/h (0 Bft)
20.04.2015 08:25 5,8 C 15,5 C 75 % 1020,8 hPa 0,0 mm 0,0 km/h (0 Bft) O-NO 67 1,7 C 0,0 km/h (0 Bft)
20.04.2015 08:30 6,4 C 15,4 C 73 % 1020,8 hPa 0,0 mm 0,0 km/h (0 Bft) O-NO 67 1,9 C 0,0 km/h (0 Bft)
20.04.2015 08:35 6,7 C 15,6 C 73 % 1021,2 hPa 0,0 mm 0,0 km/h (0 Bft) O-NO 67 2,2 C 0,0 km/h (0 Bft)
20.04.2015 08:40 6,9 C 15,4 C 72 % 1021,2 hPa 0,0 mm 0,0 km/h (0 Bft) NO 45 2,2 C 0,0 km/h (0 Bft)
20.04.2015 08:45 7,0 C 15,0 C 70 % 1021,2 hPa 0,0 mm 0,0 km/h (0 Bft) NO 45 1,9 C 0,0 km/h (0 Bft)
20.04.2015 08:50 7,6 C 15,0 C 70 % 1021,2 hPa 0,0 mm 0,5 km/h (0 Bft) O-NO 67 2,5 C 4,4 km/h (1 Bft)
20.04.2015 08:55 7,8 C 14,9 C 69 % 1021,5 hPa 0,0 mm 1,0 km/h (0 Bft) NO 45 2,5 C 0,0 km/h (0 Bft)
20.04.2015 09:00 8,0 C 15,3 C 68 % 1021,5 hPa 0,0 mm 1,0 km/h (0 Bft) O-NO 67 2,5 C 0,0 km/h (0 Bft)
20.04.2015 09:05 8,8 C 16,2 C 67 % 1021,5 hPa 0,0 mm 0,5 km/h (0 Bft) NW 315 3,0 C 4,4 km/h (1 Bft)
20.04.2015 09:10 9,0 C 16,5 C 65 % 1021,5 hPa 0,0 mm 1,0 km/h (0 Bft) O-NO 67 2,8 C 6,7 km/h (2 Bft)
20.04.2015 09:15 8,8 C 15,9 C 63 % 1021,8 hPa 0,0 mm 4,7 km/h (1 Bft) N-NO 22 2,2 C 8,5 km/h (2 Bft)
20.04.2015 09:20 8,8 C 15,7 C 63 % 1021,8 hPa 0,0 mm 4,9 km/h (1 Bft) NW 315 2,2 C 2,6 km/h (1 Bft)
20.04.2015 09:25 9,2 C 16,5 C 63 % 1021,8 hPa 0,0 mm 3,4 km/h (1 Bft) NO 45 2,5 C 5,2 km/h (1 Bft)
20.04.2015 09:30 9,6 C 16,9 C 62 % 1021,8 hPa 0,0 mm 2,6 km/h (1 Bft) NO 45 2,7 C 4,7 km/h (1 Bft)
20.04.2015 09:35 10,1 C 17,1 C 60 % 1021,9 hPa 0,0 mm 3,1 km/h (1 Bft) NW 315 2,7 C 3,9 km/h (1 Bft)
20.04.2015 09:40 10,2 C 17,2 C 59 % 1021,9 hPa 0,0 mm 3,9 km/h (1 Bft) O-NO 67 2,6 C 6,7 km/h (2 Bft)
20.04.2015 09:45 10,2 C 17,1 C 59 % 1021,9 hPa 0,0 mm 5,2 km/h (1 Bft) N-NO 22 2,6 C 12,7 km/h (3 Bft)
20.04.2015 09:50 10,3 C 16,6 C 58 % 1021,9 hPa 0,0 mm 5,4 km/h (1 Bft) O-NO 67 2,4 C 8,3 km/h (2 Bft)
20.04.2015 09:55 10,2 C 16,7 C 57 % 1021,7 hPa 0,0 mm 5,2 km/h (1 Bft) NO 45 2,1 C 6,2 km/h (2 Bft)
20.04.2015 10:00 10,5 C 16,7 C 56 % 1021,7 hPa 0,0 mm 5,4 km/h (1 Bft) O-NO 67 2,1 C 6,7 km/h (2 Bft)
20.04.2015 10:05 10,9 C 17,1 C 56 % 1021,7 hPa 0,0 mm 5,7 km/h (1 Bft) O-NO 67 2,5 C 8,3 km/h (2 Bft)
20.04.2015 10:10 11,0 C 17,3 C 55 % 1021,7 hPa 0,0 mm 5,4 km/h (1 Bft) N-NO 22 2,3 C 8,8 km/h (2 Bft)
20.04.2015 10:15 10,8 C 16,5 C 53 % 1022,0 hPa 0,0 mm 7,8 km/h (2 Bft) O-NO 67 1,6 C 14,8 km/h (3 Bft)
20.04.2015 10:20 10,8 C 16,3 C 53 % 1022,0 hPa 0,0 mm 8,8 km/h (2 Bft) N-NO 22 1,6 C 9,8 km/h (2 Bft)
20.04.2015 10:25 11,1 C 16,5 C 53 % 1022,0 hPa 0,0 mm 7,0 km/h (2 Bft) O-NO 67 1,9 C 6,5 km/h (2 Bft)
20.04.2015 10:30 11,1 C 16,5 C 52 % 1022,0 hPa 0,0 mm 7,5 km/h (2 Bft) N-NO 22 1,6 C 15,8 km/h (3 Bft)
20.04.2015 10:35 11,3 C 16,0 C 51 % 1022,1 hPa 0,0 mm 10,9 km/h (2 Bft) O-NO 67 1,5 C 20,2 km/h (4 Bft)
20.04.2015 10:40 11,1 C 15,9 C 49 % 1022,1 hPa 0,0 mm 12,4 km/h (3 Bft) N-NO 22 0,8 C 13,5 km/h (3 Bft)
20.04.2015 10:45 11,3 C 15,5 C 50 % 1022,1 hPa 0,0 mm 10,9 km/h (2 Bft) NO 45 1,3 C 23,3 km/h (4 Bft)
20.04.2015 10:50 11,1 C 15,0 C 50 % 1022,1 hPa 0,0 mm 10,4 km/h (2 Bft) O-NO 67 1,1 C 7,8 km/h (2 Bft)
20.04.2015 10:55 11,1 C 14,7 C 50 % 1022,2 hPa 0,0 mm 10,9 km/h (2 Bft) NO 45 1,1 C 16,8 km/h (3 Bft)
20.04.2015 11:00 11,6 C 15,7 C 50 % 1022,2 hPa 0,0 mm 9,3 km/h (2 Bft) O-NO 67 1,5 C 7,8 km/h (2 Bft)
20.04.2015 11:05 11,6 C 16,3 C 49 % 1022,2 hPa 0,0 mm 9,6 km/h (2 Bft) O-NO 67 1,3 C 14,5 km/h (3 Bft)
20.04.2015 11:10 11,5 C 15,9 C 48 % 1022,2 hPa 0,0 mm 10,4 km/h (2 Bft) NO 45 0,9 C 15,5 km/h (3 Bft)
20.04.2015 11:15 11,6 C 15,5 C 48 % 1022,3 hPa 0,0 mm 9,3 km/h (2 Bft) O-NO 67 1,0 C 7,0 km/h (2 Bft)
20.04.2015 11:20 11,8 C 15,9 C 49 % 1022,3 hPa 0,0 mm 7,8 km/h (2 Bft) N-NO 22 1,4 C 9,3 km/h (2 Bft)
20.04.2015 11:25 11,4 C 15,0 C 48 % 1022,3 hPa 0,0 mm 7,5 km/h (2 Bft) N-NO 22 0,8 C 6,7 km/h (2 Bft)
20.04.2015 11:30 11,3 C 14,2 C 49 % 1022,3 hPa 0,0 mm 8,8 km/h (2 Bft) O-NO 67 1,0 C 10,9 km/h (2 Bft)
20.04.2015 11:35 11,3 C 13,7 C 49 % 1022,3 hPa 0,0 mm 8,8 km/h (2 Bft) N-NO 22 1,0 C 7,0 km/h (2 Bft)
20.04.2015 11:40 11,4 C 13,9 C 50 % 1022,3 hPa 0,0 mm 9,3 km/h (2 Bft) N-NO 22 1,4 C 11,4 km/h (2 Bft)
20.04.2015 11:45 11,4 C 14,0 C 49 % 1022,3 hPa 0,0 mm 8,5 km/h (2 Bft) N-NO 22 1,1 C 15,0 km/h (3 Bft)
20.04.2015 11:50 11,5 C 14,2 C 49 % 1022,3 hPa 0,0 mm 8,0 km/h (2 Bft) NO 45 1,2 C 9,8 km/h (2 Bft)
20.04.2015 11:55 11,9 C 15,4 C 49 % 1022,1 hPa 0,0 mm 7,8 km/h (2 Bft) N-NW 337 1,5 C 8,5 km/h (2 Bft)
20.04.2015 12:00 12,1 C 16,1 C 48 % 1022,1 hPa 0,0 mm 7,3 km/h (2 Bft) O 90 1,4 C 6,7 km/h (2 Bft)
20.04.2015 12:05 12,5 C 17,5 C 49 % 1022,1 hPa 0,0 mm 6,5 km/h (2 Bft) NW 315 2,1 C 5,2 km/h (1 Bft)
20.04.2015 12:10 12,8 C 17,9 C 49 % 1022,1 hPa 0,0 mm 6,7 km/h (2 Bft) NO 45 2,4 C 6,2 km/h (2 Bft)
20.04.2015 12:15 12,6 C 17,2 C 48 % 1022,4 hPa 0,0 mm 7,5 km/h (2 Bft) O-SO 112 1,9 C 3,1 km/h (1 Bft)
20.04.2015 12:20 12,6 C 16,9 C 48 % 1022,4 hPa 0,0 mm 7,0 km/h (2 Bft) O-NO 67 1,9 C 13,5 km/h (3 Bft)
20.04.2015 12:25 12,9 C 17,2 C 47 % 1022,4 hPa 0,0 mm 7,8 km/h (2 Bft) N-NO 22 1,9 C 15,3 km/h (3 Bft)
20.04.2015 12:30 13,0 C 17,1 C 46 % 1022,4 hPa 0,0 mm 9,1 km/h (2 Bft) NO 45 1,7 C 10,9 km/h (2 Bft)
20.04.2015 12:35 13,4 C 17,7 C 46 % 1022,3 hPa 0,0 mm 7,3 km/h (2 Bft) O-NO 67 2,0 C 13,2 km/h (3 Bft)
20.04.2015 12:40 13,4 C 17,9 C 46 % 1022,3 hPa 0,0 mm 8,0 km/h (2 Bft) N-NW 337 2,0 C 15,0 km/h (3 Bft)
20.04.2015 12:45 13,7 C 18,0 C 44 % 1022,3 hPa 0,0 mm 9,6 km/h (2 Bft) NO 45 1,7 C 13,2 km/h (3 Bft)
20.04.2015 12:50 13,4 C 17,9 C 45 % 1022,3 hPa 0,0 mm 8,5 km/h (2 Bft) N-NW 337 1,7 C 15,8 km/h (3 Bft)
20.04.2015 12:55 13,6 C 17,9 C 44 % 1022,7 hPa 0,0 mm 8,3 km/h (2 Bft) O-NO 67 1,6 C 0,0 km/h (0 Bft)
20.04.2015 13:00 13,9 C 18,2 C 44 % 1022,7 hPa 0,0 mm 8,0 km/h (2 Bft) NW 315 1,9 C 10,4 km/h (2 Bft)
20.04.2015 13:05 13,6 C 17,7 C 43 % 1022,7 hPa 0,0 mm 8,3 km/h (2 Bft) O-NO 67 1,3 C 9,6 km/h (2 Bft)
20.04.2015 13:10 13,7 C 17,3 C 43 % 1022,7 hPa 0,0 mm 8,3 km/h (2 Bft) O-NO 67 1,4 C 8,0 km/h (2 Bft)
20.04.2015 13:15 13,5 C 16,3 C 42 % 1022,7 hPa 0,0 mm 9,1 km/h (2 Bft) O-NO 67 0,8 C 9,6 km/h (2 Bft)
20.04.2015 13:20 13,3 C 15,7 C 42 % 1022,7 hPa 0,0 mm 10,4 km/h (2 Bft) N-NO 22 0,7 C 14,5 km/h (3 Bft)
20.04.2015 13:25 13,9 C 15,8 C 43 % 1022,7 hPa 0,0 mm 10,1 km/h (2 Bft) NW 315 1,5 C 15,5 km/h (3 Bft)
20.04.2015 13:30 14,3 C 16,4 C 43 % 1022,7 hPa 0,0 mm 9,1 km/h (2 Bft) N-NW 337 1,9 C 3,6 km/h (1 Bft)
20.04.2015 13:35 14,8 C 17,1 C 43 % 1022,3 hPa 0,0 mm 6,7 km/h (2 Bft) O-SO 112 2,3 C 3,6 km/h (1 Bft)
20.04.2015 13:40 14,6 C 17,9 C 43 % 1022,3 hPa 0,0 mm 6,5 km/h (2 Bft) NW 315 2,2 C 9,3 km/h (2 Bft)
20.04.2015 13:45 14,6 C 18,5 C 42 % 1022,3 hPa 0,0 mm 8,0 km/h (2 Bft) NW 315 1,8 C 24,3 km/h (4 Bft)
20.04.2015 13:50 14,6 C 18,1 C 41 % 1022,3 hPa 0,0 mm 11,1 km/h (2 Bft) N-NW 337 1,5 C 14,0 km/h (3 Bft)
20.04.2015 13:55 14,3 C 17,8 C 40 % 1022,3 hPa 0,0 mm 12,9 km/h (3 Bft) NW 315 0,9 C 8,0 km/h (2 Bft)
20.04.2015 14:00 14,7 C 18,1 C 41 % 1022,3 hPa 0,0 mm 9,6 km/h (2 Bft) N 360 1,6 C 9,8 km/h (2 Bft)
20.04.2015 14:05 15,4 C 18,2 C 42 % 1022,3 hPa 0,0 mm 9,3 km/h (2 Bft) N 360 2,6 C 17,9 km/h (3 Bft)
20.04.2015 14:10 15,6 C 18,2 C 40 % 1022,3 hPa 0,0 mm 10,1 km/h (2 Bft) O 90 2,1 C 11,4 km/h (2 Bft)
20.04.2015 14:15 15,1 C 18,7 C 38 % 1022,2 hPa 0,0 mm 8,3 km/h (2 Bft) N-NO 22 0,9 C 14,5 km/h (3 Bft)
20.04.2015 14:20 15,2 C 18,9 C 38 % 1022,2 hPa 0,0 mm 6,7 km/h (2 Bft) NO 45 1,0 C 9,8 km/h (2 Bft)
20.04.2015 14:25 15,2 C 19,1 C 36 % 1022,2 hPa 0,0 mm 8,3 km/h (2 Bft) N-NW 337 0,2 C 10,4 km/h (2 Bft)
20.04.2015 14:30 15,2 C 18,8 C 35 % 1022,2 hPa 0,0 mm 9,3 km/h (2 Bft) O-NO 67 -0,2 C 8,8 km/h (2 Bft)
20.04.2015 14:35 15,3 C 18,7 C 34 % 1022,2 hPa 0,0 mm 10,4 km/h (2 Bft) N-NW 337 -0,5 C 14,5 km/h (3 Bft)
20.04.2015 14:40 15,6 C 18,6 C 34 % 1022,2 hPa 0,0 mm 10,1 km/h (2 Bft) W-NW 292 -0,2 C 11,7 km/h (2 Bft)
20.04.2015 14:45 15,6 C 18,9 C 34 % 1022,2 hPa 0,0 mm 9,8 km/h (2 Bft) NO 45 -0,2 C 19,4 km/h (3 Bft)
20.04.2015 14:50 15,5 C 18,9 C 34 % 1022,2 hPa 0,0 mm 9,8 km/h (2 Bft) W 270 -0,3 C 17,9 km/h (3 Bft)
20.04.2015 14:55 15,5 C 18,5 C 34 % 1022,1 hPa 0,0 mm 11,7 km/h (2 Bft) N-NO 22 -0,3 C 8,3 km/h (2 Bft)
20.04.2015 15:00 15,3 C 18,5 C 32 % 1022,1 hPa 0,0 mm 11,4 km/h (2 Bft) O-NO 67 -1,3 C 11,9 km/h (2 Bft)
20.04.2015 15:05 15,3 C 18,6 C 33 % 1022,1 hPa 0,0 mm 8,3 km/h (2 Bft) NO 45 -0,9 C 12,7 km/h (3 Bft)
20.04.2015 15:10 15,3 C 18,7 C 32 % 1022,1 hPa 0,0 mm 8,3 km/h (2 Bft) N 360 -1,3 C 13,2 km/h (3 Bft)
20.04.2015 15:15 15,4 C 19,1 C 33 % 1022,1 hPa 0,0 mm 8,3 km/h (2 Bft) W-NW 292 -0,8 C 6,5 km/h (2 Bft)
20.04.2015 15:20 15,7 C 19,3 C 33 % 1022,1 hPa 0,0 mm 8,3 km/h (2 Bft) NW 315 -0,5 C 16,6 km/h (3 Bft)
20.04.2015 15:25 15,6 C 19,1 C 33 % 1022,1 hPa 0,0 mm 9,3 km/h (2 Bft) O-NO 67 -0,6 C 7,3 km/h (2 Bft)
20.04.2015 15:30 15,5 C 19,2 C 33 % 1022,1 hPa 0,0 mm 9,3 km/h (2 Bft) N-NW 337 -0,7 C 6,5 km/h (2 Bft)
20.04.2015 15:35 15,3 C 18,8 C 33 % 1021,9 hPa 0,0 mm 9,8 km/h (2 Bft) O-NO 67 -0,9 C 7,0 km/h (2 Bft)
20.04.2015 15:40 15,2 C 18,5 C 33 % 1021,9 hPa 0,0 mm 11,4 km/h (2 Bft) N-NO 22 -1,0 C 14,8 km/h (3 Bft)
20.04.2015 15:45 15,1 C 18,7 C 34 % 1021,9 hPa 0,0 mm 8,5 km/h (2 Bft) S-SO 157 -0,6 C 4,7 km/h (1 Bft)
20.04.2015 15:50 15,1 C 19,3 C 34 % 1021,9 hPa 0,0 mm 6,0 km/h (2 Bft) N-NO 22 -0,6 C 12,9 km/h (3 Bft)
20.04.2015 15:55 15,1 C 18,9 C 34 % 1021,9 hPa 0,0 mm 8,0 km/h (2 Bft) NW 315 -0,6 C 9,8 km/h (2 Bft)
20.04.2015 16:00 15,0 C 18,7 C 35 % 1021,9 hPa 0,0 mm 10,1 km/h (2 Bft) N-NO 22 -0,3 C 7,0 km/h (2 Bft)
20.04.2015 16:05 14,8 C 18,7 C 36 % 1021,9 hPa 0,0 mm 8,8 km/h (2 Bft) N-NW 337 -0,1 C 6,7 km/h (2 Bft)
20.04.2015 16:10 15,1 C 18,9 C 36 % 1021,9 hPa 0,0 mm 7,3 km/h (2 Bft) NO 45 0,1 C 11,4 km/h (2 Bft)
20.04.2015 16:15 14,9 C 19,1 C 35 % 1021,8 hPa 0,0 mm 6,7 km/h (2 Bft) O-SO 112 -0,4 C 0,0 km/h (0 Bft)
20.04.2015 16:20 14,9 C 19,2 C 35 % 1021,8 hPa 0,0 mm 7,5 km/h (2 Bft) N-NW 337 -0,4 C 2,8 km/h (1 Bft)
20.04.2015 16:25 14,8 C 19,3 C 35 % 1021,8 hPa 0,0 mm 6,7 km/h (2 Bft) O-NO 67 -0,5 C 8,3 km/h (2 Bft)
20.04.2015 16:30 14,4 C 19,2 C 35 % 1021,8 hPa 0,0 mm 6,5 km/h (2 Bft) O-SO 112 -0,9 C 6,0 km/h (2 Bft)
20.04.2015 16:35 14,4 C 18,8 C 36 % 1021,5 hPa 0,0 mm 8,3 km/h (2 Bft) N-NW 337 -0,5 C 7,3 km/h (2 Bft)
20.04.2015 16:40 14,6 C 18,9 C 36 % 1021,5 hPa 0,0 mm 8,5 km/h (2 Bft) N-NO 22 -0,3 C 12,7 km/h (3 Bft)
20.04.2015 16:45 14,8 C 18,7 C 36 % 1021,5 hPa 0,0 mm 8,0 km/h (2 Bft) N-NO 22 -0,1 C 19,2 km/h (3 Bft)
20.04.2015 16:50 14,6 C 17,9 C 36 % 1021,5 hPa 0,0 mm 8,3 km/h (2 Bft) N-NW 337 -0,3 C 8,3 km/h (2 Bft)
20.04.2015 16:55 14,6 C 17,1 C 37 % 1021,6 hPa 0,0 mm 8,5 km/h (2 Bft) N-NO 22 0,1 C 10,4 km/h (2 Bft)
20.04.2015 17:00 14,6 C 16,8 C 36 % 1021,6 hPa 0,0 mm 8,5 km/h (2 Bft) N-NO 22 -0,3 C 16,6 km/h (3 Bft)
20.04.2015 17:05 14,4 C 16,5 C 37 % 1021,6 hPa 0,0 mm 8,8 km/h (2 Bft) NW 315 -0,1 C 10,4 km/h (2 Bft)
20.04.2015 17:10 14,4 C 16,5 C 37 % 1021,6 hPa 0,0 mm 8,5 km/h (2 Bft) N-NO 22 -0,1 C 8,3 km/h (2 Bft)
20.04.2015 17:15 14,4 C 16,1 C 37 % 1021,6 hPa 0,0 mm 6,0 km/h (2 Bft) NW 315 -0,1 C 17,3 km/h (3 Bft)
20.04.2015 17:20 14,3 C 15,8 C 36 % 1021,6 hPa 0,0 mm 6,2 km/h (2 Bft) N-NO 22 -0,6 C 11,4 km/h (2 Bft)
20.04.2015 17:25 14,1 C 15,4 C 36 % 1021,6 hPa 0,0 mm 7,8 km/h (2 Bft) N-NO 22 -0,7 C 8,5 km/h (2 Bft)
20.04.2015 17:30 14,0 C 15,3 C 36 % 1021,6 hPa 0,0 mm 7,5 km/h (2 Bft) O-NO 67 -0,8 C 6,0 km/h (2 Bft)
20.04.2015 17:35 13,9 C 15,2 C 36 % 1021,6 hPa 0,0 mm 5,4 km/h (1 Bft) O-NO 67 -0,9 C 12,7 km/h (3 Bft)
20.04.2015 17:40 13,9 C 15,1 C 36 % 1021,6 hPa 0,0 mm 5,4 km/h (1 Bft) N 360 -0,9 C 10,9 km/h (2 Bft)
20.04.2015 17:45 13,9 C 15,0 C 36 % 1021,6 hPa 0,0 mm 8,8 km/h (2 Bft) O-NO 67 -0,9 C 11,4 km/h (2 Bft)
20.04.2015 17:50 13,7 C 14,9 C 36 % 1021,6 hPa 0,0 mm 8,3 km/h (2 Bft) NO 45 -1,1 C 3,9 km/h (1 Bft)
20.04.2015 17:55 13,7 C 14,7 C 36 % 1021,5 hPa 0,0 mm 7,8 km/h (2 Bft) N-NO 22 -1,1 C 11,9 km/h (2 Bft)
20.04.2015 18:00 13,7 C 14,7 C 35 % 1021,5 hPa 0,0 mm 8,8 km/h (2 Bft) N-NO 22 -1,5 C 15,5 km/h (3 Bft)
20.04.2015 18:05 13,6 C 14,6 C 35 % 1021,5 hPa 0,0 mm 9,1 km/h (2 Bft) N-NO 22 -1,6 C 9,3 km/h (2 Bft)
20.04.2015 18:10 13,7 C 14,5 C 36 % 1021,5 hPa 0,0 mm 8,5 km/h (2 Bft) NO 45 -1,1 C 11,7 km/h (2 Bft)
20.04.2015 18:15 13,7 C 14,7 C 36 % 1021,6 hPa 0,0 mm 6,2 km/h (2 Bft) NW 315 -1,1 C 9,8 km/h (2 Bft)
20.04.2015 18:20 13,8 C 14,6 C 36 % 1021,6 hPa 0,0 mm 6,2 km/h (2 Bft) N-NW 337 -1,0 C 12,9 km/h (3 Bft)
20.04.2015 18:25 13,5 C 14,8 C 36 % 1021,6 hPa 0,0 mm 7,0 km/h (2 Bft) N-NO 22 -1,3 C 4,9 km/h (1 Bft)
20.04.2015 18:30 13,3 C 15,0 C 36 % 1021,6 hPa 0,0 mm 7,3 km/h (2 Bft) NW 315 -1,4 C 5,4 km/h (1 Bft)
20.04.2015 18:35 13,2 C 14,9 C 36 % 1021,6 hPa 0,0 mm 7,5 km/h (2 Bft) N-NO 22 -1,5 C 13,2 km/h (3 Bft)
20.04.2015 18:40 13,2 C 15,0 C 36 % 1021,6 hPa 0,0 mm 6,7 km/h (2 Bft) O-NO 67 -1,5 C 3,1 km/h (1 Bft)
20.04.2015 18:45 13,1 C 14,6 C 37 % 1021,6 hPa 0,0 mm 6,2 km/h (2 Bft) N-NO 22 -1,2 C 12,4 km/h (3 Bft)
20.04.2015 18:50 13,2 C 14,4 C 37 % 1021,6 hPa 0,0 mm 6,5 km/h (2 Bft) N 360 -1,2 C 7,5 km/h (2 Bft)
20.04.2015 18:55 13,1 C 14,2 C 38 % 1021,7 hPa 0,0 mm 7,3 km/h (2 Bft) NW 315 -0,9 C 8,0 km/h (2 Bft)
20.04.2015 19:00 13,1 C 14,2 C 39 % 1021,7 hPa 0,0 mm 7,0 km/h (2 Bft) NO 45 -0,5 C 6,5 km/h (2 Bft)
20.04.2015 19:05 13,0 C 14,3 C 40 % 1021,7 hPa 0,0 mm 6,0 km/h (2 Bft) N-NO 22 -0,3 C 7,8 km/h (2 Bft)
20.04.2015 19:10 13,0 C 14,3 C 40 % 1021,7 hPa 0,0 mm 6,5 km/h (2 Bft) O-NO 67 -0,3 C 6,5 km/h (2 Bft)
20.04.2015 19:15 12,8 C 14,2 C 40 % 1021,9 hPa 0,0 mm 7,3 km/h (2 Bft) N-NO 22 -0,5 C 12,2 km/h (2 Bft)
20.04.2015 19:20 12,8 C 14,3 C 41 % 1021,9 hPa 0,0 mm 5,7 km/h (1 Bft) NO 45 -0,1 C 4,4 km/h (1 Bft)
20.04.2015 19:25 12,5 C 14,0 C 43 % 1021,9 hPa 0,0 mm 4,7 km/h (1 Bft) NO 45 0,3 C 6,0 km/h (2 Bft)
20.04.2015 19:30 12,5 C 13,9 C 43 % 1021,9 hPa 0,0 mm 4,7 km/h (1 Bft) N-NW 337 0,3 C 6,7 km/h (2 Bft)
20.04.2015 19:35 12,3 C 13,7 C 43 % 1021,9 hPa 0,0 mm 6,5 km/h (2 Bft) NO 45 0,1 C 8,3 km/h (2 Bft)
20.04.2015 19:40 12,2 C 13,5 C 43 % 1021,9 hPa 0,0 mm 7,0 km/h (2 Bft) N-NO 22 -0,0 C 6,0 km/h (2 Bft)
20.04.2015 19:45 11,9 C 13,0 C 44 % 1021,9 hPa 0,0 mm 6,0 km/h (2 Bft) N 360 0,0 C 4,9 km/h (1 Bft)
20.04.2015 19:50 11,6 C 12,6 C 44 % 1021,9 hPa 0,0 mm 3,9 km/h (1 Bft) O-NO 67 -0,2 C 4,1 km/h (1 Bft)
20.04.2015 19:55 11,1 C 12,0 C 45 % 1022,3 hPa 0,0 mm 3,4 km/h (1 Bft) N 360 -0,4 C 4,7 km/h (1 Bft)
20.04.2015 20:00 10,8 C 11,5 C 46 % 1022,3 hPa 0,0 mm 2,3 km/h (1 Bft) NO 45 -0,3 C 0,0 km/h (0 Bft)
20.04.2015 20:05 10,3 C 10,6 C 47 % 1022,3 hPa 0,0 mm 0,5 km/h (0 Bft) O 90 -0,5 C 0,0 km/h (0 Bft)
20.04.2015 20:10 10,4 C 10,3 C 47 % 1022,3 hPa 0,0 mm 0,3 km/h (0 Bft) O-SO 112 -0,4 C 2,8 km/h (1 Bft)
20.04.2015 20:15 10,2 C 10,0 C 48 % 1022,4 hPa 0,0 mm 0,5 km/h (0 Bft) O-SO 112 -0,3 C 0,0 km/h (0 Bft)
20.04.2015 20:20 10,1 C 9,8 C 48 % 1022,4 hPa 0,0 mm 0,5 km/h (0 Bft) O-SO 112 -0,4 C 0,0 km/h (0 Bft)
20.04.2015 20:25 9,8 C 9,4 C 49 % 1022,4 hPa 0,0 mm 0,0 km/h (0 Bft) SO 135 -0,4 C 0,0 km/h (0 Bft)
20.04.2015 20:30 9,5 C 9,2 C 50 % 1022,4 hPa 0,0 mm 0,5 km/h (0 Bft) SO 135 -0,4 C 3,6 km/h (1 Bft)
20.04.2015 20:35 9,1 C 8,8 C 51 % 1022,8 hPa 0,0 mm 2,3 km/h (1 Bft) SO 135 -0,5 C 0,0 km/h (0 Bft)
20.04.2015 20:40 8,9 C 8,7 C 52 % 1022,8 hPa 0,0 mm 3,4 km/h (1 Bft) S-SO 157 -0,4 C 4,7 km/h (1 Bft)
20.04.2015 20:45 8,5 C 8,3 C 53 % 1022,8 hPa 0,0 mm 3,4 km/h (1 Bft) S-SO 157 -0,5 C 6,0 km/h (2 Bft)
20.04.2015 20:50 8,2 C 8,1 C 54 % 1022,8 hPa 0,0 mm 4,1 km/h (1 Bft) S-SO 157 -0,5 C 7,3 km/h (2 Bft)
20.04.2015 20:55 7,7 C 7,6 C 56 % 1023,1 hPa 0,0 mm 3,4 km/h (1 Bft) S-SO 157 -0,5 C 3,9 km/h (1 Bft)
20.04.2015 21:00 7,4 C 7,5 C 56 % 1023,1 hPa 0,0 mm 3,1 km/h (1 Bft) S-SO 157 -0,8 C 5,7 km/h (1 Bft)
20.04.2015 21:05 7,2 C 7,4 C 58 % 1023,1 hPa 0,0 mm 3,9 km/h (1 Bft) S-SO 157 -0,5 C 0,0 km/h (0 Bft)
20.04.2015 21:10 6,9 C 7,3 C 59 % 1023,1 hPa 0,0 mm 4,1 km/h (1 Bft) S-SO 157 -0,5 C 6,0 km/h (2 Bft)
20.04.2015 21:15 6,9 C 7,4 C 59 % 1023,3 hPa 0,0 mm 4,7 km/h (1 Bft) S-SO 157 -0,5 C 4,7 km/h (1 Bft)
20.04.2015 21:20 7,0 C 7,1 C 59 % 1023,3 hPa 0,0 mm 5,2 km/h (1 Bft) SO 135 -0,5 C 4,9 km/h (1 Bft)
20.04.2015 21:25 6,7 C 6,7 C 59 % 1023,3 hPa 0,0 mm 4,7 km/h (1 Bft) S-SO 157 -0,7 C 4,7 km/h (1 Bft)
20.04.2015 21:30 6,6 C 6,6 C 59 % 1023,3 hPa 0,0 mm 3,9 km/h (1 Bft) S-SO 157 -0,8 C 4,7 km/h (1 Bft)
20.04.2015 21:35 6,4 C 6,3 C 60 % 1023,6 hPa 0,0 mm 3,1 km/h (1 Bft) S 180 -0,8 C 4,7 km/h (1 Bft)
20.04.2015 21:40 6,1 C 6,0 C 61 % 1023,6 hPa 0,0 mm 2,3 km/h (1 Bft) S 180 -0,8 C 0,0 km/h (0 Bft)
20.04.2015 21:45 6,0 C 5,8 C 62 % 1023,6 hPa 0,0 mm 1,0 km/h (0 Bft) S-SO 157 -0,7 C 0,0 km/h (0 Bft)
20.04.2015 21:50 6,0 C 5,7 C 63 % 1023,6 hPa 0,0 mm 0,3 km/h (0 Bft) S 180 -0,5 C 0,0 km/h (0 Bft)
20.04.2015 21:55 6,1 C 5,7 C 63 % 1023,6 hPa 0,0 mm 0,0 km/h (0 Bft) SO 135 -0,4 C 0,0 km/h (0 Bft)
20.04.2015 22:00 6,1 C 5,7 C 63 % 1023,6 hPa 0,0 mm 0,0 km/h (0 Bft) SO 135 -0,4 C 0,0 km/h (0 Bft)
20.04.2015 22:05 6,0 C 5,4 C 62 % 1023,6 hPa 0,0 mm 0,0 km/h (0 Bft) SO 135 -0,7 C 0,0 km/h (0 Bft)
20.04.2015 22:10 6,0 C 5,3 C 62 % 1023,6 hPa 0,0 mm 0,0 km/h (0 Bft) SO 135 -0,7 C 0,0 km/h (0 Bft)
20.04.2015 22:15 6,0 C 5,3 C 62 % 1023,7 hPa 0,0 mm 0,0 km/h (0 Bft) S 180 -0,7 C 0,0 km/h (0 Bft)
20.04.2015 22:20 5,9 C 5,2 C 64 % 1023,7 hPa 0,0 mm 0,0 km/h (0 Bft) SO 135 -0,4 C 0,0 km/h (0 Bft)
20.04.2015 22:25 5,8 C 5,1 C 64 % 1023,7 hPa 0,0 mm 0,0 km/h (0 Bft) SO 135 -0,5 C 0,0 km/h (0 Bft)
20.04.2015 22:30 5,7 C 4,9 C 64 % 1023,7 hPa 0,0 mm 0,0 km/h (0 Bft) SO 135 -0,6 C 0,0 km/h (0 Bft)
20.04.2015 22:35 5,3 C 4,6 C 63 % 1023,8 hPa 0,0 mm 0,0 km/h (0 Bft) S-SO 157 -1,2 C 0,0 km/h (0 Bft)
20.04.2015 22:40 5,4 C 4,7 C 64 % 1023,8 hPa 0,0 mm 0,0 km/h (0 Bft) SO 135 -0,9 C 0,0 km/h (0 Bft)
20.04.2015 22:45 5,3 C 4,6 C 64 % 1023,8 hPa 0,0 mm 0,0 km/h (0 Bft) SO 135 -0,9 C 0,0 km/h (0 Bft)
20.04.2015 22:50 4,8 C 4,3 C 63 % 1023,8 hPa 0,0 mm 0,0 km/h (0 Bft) SO 135 -1,6 C 0,0 km/h (0 Bft)
20.04.2015 22:55 4,2 C 3,8 C 63 % 1023,8 hPa 0,0 mm 0,0 km/h (0 Bft) SO 135 -2,2 C 0,0 km/h (0 Bft)
20.04.2015 23:00 4,0 C 3,6 C 63 % 1023,8 hPa 0,0 mm 0,0 km/h (0 Bft) SO 135 -2,4 C 0,0 km/h (0 Bft)
20.04.2015 23:05 3,9 C 3,4 C 65 % 1023,8 hPa 0,0 mm 0,0 km/h (0 Bft) SO 135 -2,1 C 0,0 km/h (0 Bft)
20.04.2015 23:10 4,1 C 3,5 C 65 % 1023,8 hPa 0,0 mm 0,0 km/h (0 Bft) SO 135 -1,9 C 0,0 km/h (0 Bft)
20.04.2015 23:15 4,3 C 3,7 C 66 % 1023,8 hPa 0,0 mm 0,0 km/h (0 Bft) SO 135 -1,5 C 0,0 km/h (0 Bft)
20.04.2015 23:20 4,1 C 3,6 C 66 % 1023,8 hPa 0,0 mm 0,0 km/h (0 Bft) SO 135 -1,7 C 0,0 km/h (0 Bft)
20.04.2015 23:25 3,8 C 3,3 C 67 % 1023,8 hPa 0,0 mm 0,0 km/h (0 Bft) SO 135 -1,8 C 0,0 km/h (0 Bft)
20.04.2015 23:30 3,4 C 3,0 C 67 % 1023,8 hPa 0,0 mm 0,0 km/h (0 Bft) SO 135 -2,1 C 0,0 km/h (0 Bft)
20.04.2015 23:35 3,2 C 2,8 C 67 % 1023,9 hPa 0,0 mm 0,0 km/h (0 Bft) S-SO 157 -2,3 C 0,0 km/h (0 Bft)
20.04.2015 23:40 3,2 C 2,8 C 67 % 1023,9 hPa 0,0 mm 0,0 km/h (0 Bft) S-SO 157 -2,3 C 0,0 km/h (0 Bft)
20.04.2015 23:45 3,0 C 2,5 C 68 % 1023,9 hPa 0,0 mm 0,0 km/h (0 Bft) S-SO 157 -2,3 C 0,0 km/h (0 Bft)
20.04.2015 23:50 3,0 C 2,5 C 68 % 1023,9 hPa 0,0 mm 0,0 km/h (0 Bft) S-SO 157 -2,3 C 0,0 km/h (0 Bft)
20.04.2015 23:55 3,0 C 2,5 C 69 % 1023,8 hPa 0,0 mm 0,0 km/h (0 Bft) S-SO 157 -2,1 C 0,0 km/h (0 Bft)
_ Min-Zeit 06:35 05:55 15:10 00:50 - 23:55 - - 06:05 23:55
Minimum _ -2,3 C -2,8 C 32 % 1018,8 hPa - 0,0 km/h (0 Bft) - - -4,9 C 0,0 km/h (0 Bft)
_ Max-Zeit 15:20 16:25 06:45 23:50 23:55 13:55 - - 09:05 13:45
Maximum _ 15,7 C 19,3 C 87 % 1023,9 hPa 0,0 mm 12,9 km/h
NW (3 Bft)
- - 3,0 C 24,3 km/h
NW (4 Bft)
Durchschnitt _ 7,1 C 9,0 C 59 % 1021,3 hPa #0,0 mm 3,8 km/h (1 Bft) N-NO - -1,0 C 4,9 km/h (1 Bft)